Home   Weather   Lautoka   Past weeks

Flag for Fiji Past Weather in Lautoka, Fiji — Yesterday and Last 2 Weeks

Now
81 °F

Partly cloudy.


Feels Like: 84 °F
Forecast: 78 / 88 °F
Wind: 8 mph from Southeast

Location: Nandi

Current Time: Dec 11, 2016 at 9:17:11 pm

Latest Report: Dec 11, 2016 at 8:00 pm


Visibility: N/A

Pressure: 29.83 "Hg

Humidity: 70%

Dew Point: 70 °F

Location of LautokaLocation

Past Weather in Lautoka — Graph

°F

Lautoka Temperature Yesterday

Maximum temperature yesterday: 86 °F (at 1:00 pm)
Minimum temperature yesterday: 77 °F (at 4:00 am)
Average temperature yesterday: 81 °F

High & Low Weather Summary for the Past Weeks

 TemperatureHumidityPressure
High90 °F (Nov 30, 3:00 pm)100% (Nov 27, 12:00 am)29.89 "Hg (Nov 27, 12:00 am)
Low72 °F (Nov 29, 6:00 am)46% (Dec 6, 4:00 pm)29.68 "Hg (Dec 3, 4:00 pm)
Average81 °F77%29.79 "Hg
* Reported Nov 26 8:00 pm — Dec 11 8:00 pm, Lautoka, Weather by CustomWeather, © 2016

Note: Actual official high and low records may vary slightly from our data, if they occured in-between our weather recording intervals... More about our weather records

Advertising

Lautoka Weather History for the Previous 24 Hours

Scroll right to see more
 ConditionsComfort  
Time TempWeatherWind HumidityBarometerVisibility
8:00 pm
Sun, Dec 11
81 °FPartly cloudy.8 mph70%29.83 "HgN/A
7:00 pm81 °FSprinkles. More clouds than sun.6 mph70%29.83 "HgN/A
6:00 pm86 °FMore clouds than sun.5 mph75%29.80 "HgN/A
5:00 pm84 °FSprinkles. More clouds than sun.7 mph79%29.80 "HgN/A
4:00 pm84 °FMore clouds than sun.5 mph74%29.83 "HgN/A
3:00 pm84 °FMore clouds than sun.8 mph74%29.83 "HgN/A
2:00 pm84 °FMore clouds than sun.9 mph74%29.83 "HgN/A
1:00 pm86 °FMore clouds than sun.8 mph70%29.83 "HgN/A
12:00 pm88 °FBroken clouds.8 mph66%29.86 "HgN/A
11:00 am88 °FBroken clouds.3 mph62%29.86 "HgN/A
10:00 am86 °FBroken clouds.6 mph66%29.86 "HgN/A
9:00 am84 °FBroken clouds.6 mph70%29.86 "HgN/A
8:00 am82 °FPartly sunny.No wind74%29.83 "HgN/A
7:00 am77 °FPartly sunny.5 mph89%29.83 "HgN/A
6:00 am77 °FPassing clouds.5 mph89%29.83 "HgN/A
5:00 am77 °FPassing clouds.3 mph89%29.83 "HgN/A
4:00 am77 °FPassing clouds.No wind89%29.83 "HgN/A
3:00 am77 °FPassing clouds.5 mph89%29.83 "HgN/A
2:00 am79 °FPartly cloudy.No wind84%29.83 "HgN/A
1:00 am79 °FPassing clouds.No wind89%29.86 "HgN/A
12:00 am79 °FPartly cloudy.6 mph89%29.86 "HgN/A
11:00 pm
Sat, Dec 10
79 °FMostly cloudy.3 mph84%29.86 "HgN/A
10:00 pm81 °FPassing clouds.3 mph79%29.86 "HgN/A
9:00 pm81 °FMostly cloudy.5 mph79%29.86 "HgN/A
Weather by CustomWeather, © 2016

See weather overviewHow to use our weather pages